2017 Vitality Liverpool Half Marathon

4021 results found. Perform another search | Print these results

Race Number First Name Surname Gender Gender Position Category Category Position Club 5 Mile Stage Position 10 Mile Stage Position Gun Time Overall Position Chip Time Chip Position Tweet Share
4272 Dejene Gezimu Male 1 MOPEN 1 LIVERPOOL HARRIERS AC 00:25:04 1 00:49:58 1 01:05:52 1 01:05:52 1
1474 Paul Fauset Male 10 M40+ 1 DARK PEAK FELL RUNNERS CLUB 00:27:54 9 00:56:20 9 01:14:42 10 01:14:41 10
135 Rob Downs Male 12 M50+ 1 WILMSLOW RC 00:28:01 13 00:56:42 14 01:15:09 12 01:15:08 12
5 David Watson Male 16 M45+ 1 HOLMFIRTH HARRIERS AC 00:27:43 7 00:56:26 10 01:15:41 16 01:15:40 16
13 Michelle Nolan Female 1 F35+ 1 GATESHEAD HARRIERS AC 00:30:16 54 01:00:29 47 01:19:38 41 01:19:36 43
4586 Diane Mcvey Female 2 F40+ 1 WILMSLOW RC 00:29:51 43 01:00:13 42 01:19:40 42 01:19:37 44
10330 Elissa Morris Female 3 FOPEN 1 MANX HARRIERS 00:30:41 69 01:02:11 69 01:22:55 76 01:22:49 82
12 Treena Johnson Female 4 F55+ 1 DEWSBURY ROAD RUNNERS 00:31:33 109 01:03:00 95 01:22:58 78 01:22:51 83
4486 David Gill Male 112 M55+ 1 WARRINGTON AC 00:32:01 138 01:04:23 133 01:24:50 116 01:24:47 128
2399 Christine Murphy Female 17 F45+ 1 LIVERPOOL HARRIERS AC 00:34:03 267 01:08:33 267 01:31:24 261 01:31:13 279
133 Brian Beecroft Male 247 M60+ 1 WIRRAL AC 00:34:59 343 01:09:42 310 01:31:37 265 01:31:27 291
377 Rudolf Maciejkowicz Male 395 M65+ 1 HORWICH RMI HARRIERS 00:35:00 348 01:12:18 439 01:36:23 431 01:36:11 474
547 Shirley Staveley Female 81 F50+ 1 BURNDEN ROAD RUNNERS 00:37:45 773 01:17:22 868 01:42:24 737 01:42:10 839
86 Rosemary Rogers Female 185 F65+ 1 WEST CHESHIRE AC 00:41:34 1584 01:23:22 1508 01:51:24 1305 01:50:34 1491
131 Ray Smith Male 1273 M70+ 1 NORTHERN VETERANS AC 00:41:56 1661 01:23:23 1510 01:53:54 1496 01:52:00 1622
4383 Pat Helsby Female 315 F60+ 1 KIRKBY MILERS 00:42:23 1764 01:25:20 1717 01:58:10 1804 01:53:30 1734
495 Sue Nicholls Female 608 F70+ 1 BURNHAM-ON-SEA HARRIERS 00:46:19 2707 01:34:32 2765 02:09:03 2628 02:05:18 2706
2496 Dave Onion Male 2271 M75+ 1 REDHILL ROAD RUNNERS 00:50:07 3379 01:43:19 3387 02:18:33 3137 02:18:01 3365
1 Andrew Davies Male 2 MOPEN 2 STOCKPORT HARRIERS AC 00:25:32 2 00:50:52 2 01:07:15 2 01:07:14 2
1791 Will Kerr Male 13 M40+ 2 SALTAIRE STRIDERS 00:28:19 16 00:56:54 15 01:15:13 13 01:15:11 13
3875 Michael Garrett Male 17 M45+ 2 MANX HARRIERS 00:28:41 23 00:57:02 18 01:15:48 17 01:15:47 17
4545 Sammy Rahid Male 36 M50+ 2 LIVERPOOL PEMBROKE SEFTON HARR 00:29:06 25 00:59:06 32 01:19:20 36 01:19:18 37
4778 Jennifer Clague Female 5 F40+ 2 LIVERPOOL HARRIERS AC 00:31:56 133 01:04:17 128 01:25:05 121 01:25:03 132
4916 Jenny Watt Female 6 FOPEN 2 VALE ROYAL AC 00:31:46 125 01:04:24 134 01:25:32 131 01:25:21 138
3224 Keith Scovell Male 137 M55+ 2 ARROWE PARK AMBLERS 00:32:37 172 01:05:28 160 01:26:26 145 01:26:10 150
15 Carmel Triggs Female 9 F35+ 2 00:33:04 197 01:05:48 166 01:26:56 153 01:26:38 158
4054 David Nalder Male 348 M60+ 2 ELLESMERE PORT RC 00:36:16 494 01:11:58 420 01:35:09 378 01:34:01 373
4817 Justine Moore Female 40 F45+ 2 KNOWSLEY HARRIERS 00:36:28 533 01:12:53 490 01:37:12 472 01:36:36 501
223 Karen Tempest Female 68 F55+ 2 00:37:50 788 01:15:41 728 01:40:56 663 01:39:41 705
262 Eurwyn Edwards Male 607 M65+ 2 ERYRI HARRIERS 00:37:26 724 01:16:10 766 01:41:08 677 01:40:47 760
1363 Claire Ross Female 82 F50+ 2 00:38:57 995 01:16:40 800 01:42:34 749 01:40:38 752
159 Patricia Vernazza Female 192 F65+ 2 00:41:10 1486 01:22:35 1421 01:51:51 1343 01:49:26 1403
3338 Frantisek Kubicek Male 1427 M70+ 2 00:43:11 1944 01:27:54 2018 01:56:59 1727 01:56:40 1996
1193 Anne Acton Female 365 F60+ 2 00:44:34 2251 01:28:38 2097 02:00:19 1966 01:56:48 2008
2586 Margaret Ellams Female 741 F70+ 2 00:48:37 3156 01:38:14 3083 02:13:14 2873 02:10:54 3049
4686 John Courtney Male 2499 M75+ 2 00:56:12 3818 01:53:14 3769 02:35:53 3694 02:26:57 3657
3764 Ben Johnson Male 3 MOPEN 3 SOUTHPORT WATERLOO AC 00:25:51 3 00:51:28 3 01:08:27 3 01:08:26 3
4180 Marc Penn Male 15 M40+ 3 KESWICK AC 00:28:09 15 00:56:54 16 01:15:25 15 01:15:23 14
10337 Paul Sankey Male 22 M45+ 3 LIVERPOOL HARRIERS AC 00:28:37 22 00:58:12 21 01:17:11 22 01:17:11 24
2962 Peter Rogers Male 43 M50+ 3 STOCKPORT HARRIERS AC 00:30:16 53 01:00:26 46 01:20:05 45 01:20:01 46
9 Karen Shimmin Female 7 FOPEN 3 MANX HARRIERS 00:32:30 160 01:04:50 145 01:26:09 141 01:25:41 142
3337 Daniel Rees Male 154 M55+ 3 WEST LANCS TRI CLUB 00:32:37 170 01:06:06 175 01:27:23 163 01:27:07 167
160 Fiona Lynch Female 11 F40+ 3 RADCLIFFE AC 00:33:39 230 01:07:39 239 01:29:36 228 01:29:24 233
2023 Carol Paxton Female 20 F35+ 3 00:34:07 279 01:09:03 292 01:31:38 267 01:31:22 284
2969 Lenny Hughes Male 363 M60+ 3 MALDWYN H 00:36:48 593 01:12:43 471 01:35:33 393 01:35:11 421
576 Sam Horsfall Female 42 F45+ 3 00:36:52 608 01:14:24 620 01:37:59 506 01:37:22 537
649 Sue Spong Female 72 F55+ 3 HAVERING 90 JOGGERS 00:37:51 790 01:16:03 755 01:41:12 682 01:40:31 741
3987 Linda Jones Female 84 F50+ 3 WREXHAM AAC 00:38:24 899 01:17:12 857 01:42:34 751 01:41:45 814
3045 Garry Clarke Male 670 M65+ 3 TALLAGHT AC 00:38:33 924 01:17:36 884 01:42:38 755 01:42:11 842
801 Leung Kye Cho Male 1520 M70+ 3 00:45:22 2466 01:29:45 2218 01:58:48 1846 01:57:39 2105
4655 Heather Mitchell Female 391 F60+ 3 DEWSBURY ROAD RUNNERS 00:44:38 2268 01:28:55 2131 02:01:15 2052 01:57:49 2126
4425 Sue Cash Female 533 F65+ 3 WIRRAL VIKINGS TRC 00:45:11 2422 01:30:42 2325 02:06:14 2454 02:00:20 2358
2093 Marion Hirst Female 1359 F70+ 3 01:01:25 3969 02:08:04 3970 02:59:00 3953 02:51:00 3943
4928 Ronald Thornton Male 2608 M75+ 3 KNOWSLEY HARRIERS 01:04:31 3985 02:14:30 3996 03:11:37 3995 03:03:13 3991
3 William Onek Male 4 MOPEN 4 BARLICK FELL RUNNERS 00:26:45 5 00:54:16 4 01:12:10 4 01:12:09 4
3478 Chris Fitzpatrick Male 29 M40+ 4 HELSBY (BICC) RC 00:29:07 26 00:58:51 27 01:18:40 29 01:18:37 29
6 Chris Yorke Male 30 M45+ 4 NORTH WALES ROAD RUNNERS 00:28:34 20 00:59:05 31 01:18:44 30 01:18:43 31
2772 Paul Schumann Male 84 M50+ 4 KNOWSLEY HARRIERS 00:30:56 78 01:02:33 83 01:23:16 88 01:23:12 97
1335 Rachel Boyd Female 8 FOPEN 4 SALTAIRE STRIDERS 00:32:25 154 01:05:06 152 01:26:18 143 01:26:02 149
4650 Mark Ashby Male 158 M55+ 4 SOUTHPORT WATERLOO AC 00:32:28 155 01:06:03 174 01:27:29 167 01:27:24 179
4982 Jude Peck Female 13 F40+ 4 NORTHERN VETERANS AC 00:34:14 295 01:08:19 260 01:30:25 239 01:30:04 245
1647 Jennifer Cottrell Female 22 F35+ 4 00:35:25 397 01:10:47 361 01:32:31 293 01:32:07 313
10353 Joe Mcgrath Male 396 M60+ 4 PENNY LANE STRIDERS 00:35:15 371 01:11:25 389 01:36:24 432 01:35:58 459
1785 Lynn Murray Female 43 F45+ 4 BARROW FURNESS STRIDERS AC 00:36:12 486 01:13:13 514 01:38:04 509 01:37:29 545
137 Lynn Rees Female 74 F55+ 4 00:37:38 747 01:16:05 758 01:41:32 692 01:40:37 751
3620 Julie Stanton Female 117 F50+ 4 CROSSGATES HARRIERS AC 00:38:34 926 01:18:10 931 01:46:08 950 01:45:27 1066
132 James Mcglynn Male 893 M65+ 4 00:39:22 1074 01:18:07 927 01:47:22 1020 01:42:04 835
2131 Anne Mccartan Female 508 F60+ 4 00:45:44 2571 01:30:59 2372 02:05:07 2388 01:59:42 2302
253 Alasdair Kennedy Male 2010 M70+ 4 00:47:47 2984 01:34:28 2751 02:08:47 2614 02:04:49 2680
931 Ellen Barr Female 658 F65+ 4 JERSEY SPARTAN AC 00:46:13 2680 01:34:30 2756 02:10:28 2706 02:06:10 2746
3657 Matthew Hornsby Male 5 MOPEN 5 DURHAM CITY HARRIERS AC 00:27:01 6 00:54:40 5 01:12:51 5 01:12:50 5
3275 Andrew Whittingham Male 31 M45+ 5 WILMSLOW RC 00:29:30 34 00:59:29 35 01:18:46 31 01:18:44 32
2159 Richard Walker Male 45 M40+ 5 BARROW FURNESS STRIDERS AC 00:30:39 66 01:00:48 50 01:20:35 47 01:20:25 48
4150 David Edwards Male 95 M50+ 5 KIRKBY MILERS 00:31:12 90 01:03:15 103 01:23:56 99 01:23:53 110
4247 David Meskell Male 160 M55+ 5 00:32:19 145 01:05:51 169 01:27:36 169 01:27:28 183
3580 Charlotte Wilson-Dewhurst Female 10 FOPEN 5 LIVERPOOL HARRIERS AC 00:32:28 156 01:06:36 189 01:28:49 199 01:28:38 208
771 Sophie Green Female 21 F40+ 5 00:35:38 424 01:10:37 352 01:31:52 277 01:31:25 288
3253 Vicky Penn Female 32 F35+ 5 SMILEY PACES 00:35:14 369 01:11:50 411 01:35:41 398 01:35:28 433
3071 John Tyrrell Male 462 M60+ 5 TALLAGHT AC 00:37:16 688 01:14:47 649 01:37:55 502 01:37:18 532
2101 Kathleen Crisp Female 58 F45+ 5 BARROW FURNESS STRIDERS AC 00:37:25 717 01:15:00 660 01:39:31 586 01:38:55 644
4078 Tracy Pennington Female 134 F50+ 5 PENSBY RUNNERS 00:39:53 1183 01:20:16 1149 01:47:54 1061 01:45:33 1072
130 Caroline Horton Female 154 F55+ 5 STOCKSFIELD STRIDERS 00:41:17 1524 01:21:50 1326 01:49:06 1146 01:46:05 1107
4339 Simon Longman Male 1126 M65+ 5 00:40:45 1391 01:22:09 1372 01:51:28 1311 01:49:06 1379
4337 Christine Ching Female 648 F60+ 5 00:47:23 2912 01:36:12 2924 02:10:12 2691 02:09:31 2972
3377 Don Macleod Male 2214 M70+ 5 00:47:54 3013 01:38:12 3079 02:15:56 3024 02:11:21 3072
4523 Tina Woods Female 816 F65+ 5 BIRKENHEAD AC 00:48:24 3114 01:37:35 3029 02:16:17 3038 02:09:15 2949
1122 David Fitzpatrick Male 6 MOPEN 6 TALLAGHT AC 00:28:19 17 00:56:35 13 01:14:16 6 01:14:13 6
3957 Dave Edwards Male 34 M45+ 6 00:29:10 29 00:59:14 33 01:18:53 34 01:18:46 34
4649 Jonathan Kettle Male 48 M40+ 6 NORTH WALES ROAD RUNNERS 00:31:07 85 01:01:35 62 01:20:45 50 01:20:39 50
4667 Richard Murray Male 100 M50+ 6 VALE ROYAL AC 00:31:37 113 01:03:32 108 01:24:04 104 01:23:57 111
2428 Paul Shannon Male 207 M55+ 6 TATTENHALL RUNNERS 00:33:13 206 01:07:27 218 01:29:11 217 01:28:55 224
2225 Katie Waite Female 12 FOPEN 6 BARROW FURNESS STRIDERS AC 00:33:52 248 01:07:38 236 01:30:08 235 01:29:48 241
3723 Dianna Mannhart Female 37 F35+ 6 00:36:46 589 01:13:05 503 01:36:26 434 01:35:42 444
2929 John Witton Male 492 M60+ 6 00:36:07 473 01:13:41 547 01:38:41 537 01:38:07 586
529 Lucy Fowler Female 51 F40+ 6 00:36:52 607 01:14:35 634 01:39:25 570 01:38:48 635
815 Elaine Stone Female 79 F45+ 6 WIRKSWORTH RUNNING CLUB 00:38:13 865 01:17:03 839 01:42:15 728 01:41:37 805
1120 Jacqui Boyle Female 149 F50+ 6 TALLAGHT AC 00:41:10 1489 01:22:25 1400 01:48:48 1123 01:48:19 1309
1309 Helen Love Female 175 F55+ 6 SALTAIRE STRIDERS 00:39:48 1161 01:20:42 1203 01:50:31 1239 01:46:48 1186
1966 Barney Lerner Male 1163 M65+ 6 SALTAIRE STRIDERS 00:42:21 1757 01:23:53 1562 01:52:05 1360 01:50:30 1482
182 Katherine Kingsley Female 738 F60+ 6 FYLDE COAST RUNNERS 00:48:18 3093 01:36:25 2936 02:13:10 2869 02:06:51 2792